TimeEST,TemperatureF,Dew PointF,Humidity,Sea Level PressureIn,VisibilityMPH,Wind Direction,Wind SpeedMPH,Gust SpeedMPH,PrecipitationIn,Events,Conditions,WindDirDegrees,DateUTC
12:23 AM,66.2,59.0,78,29.89,10.0,South,9.2,21.9,N/A,,Scattered Clouds,180,2014-02-21 05:23:00
12:58 AM,65.7,59.0,79,29.89,10.0,South,10.4,-,N/A,,Scattered Clouds,180,2014-02-21 05:58:00
1:23 AM,66.2,59.0,78,29.90,10.0,SSE,11.5,18.4,N/A,,Mostly Cloudy,160,2014-02-21 06:23:00
1:38 AM,66.2,59.0,78,29.89,10.0,South,9.2,-,N/A,,Mostly Cloudy,180,2014-02-21 06:38:00
1:58 AM,65.3,59.9,83,29.87,10.0,South,9.2,-,N/A,,Overcast,180,2014-02-21 06:58:00
2:58 AM,64.8,60.6,86,29.83,10.0,South,6.9,-,N/A,,Overcast,170,2014-02-21 07:58:00
3:07 AM,64.4,60.8,88,29.84,10.0,SSE,8.1,-,N/A,,Light Drizzle,150,2014-02-21 08:07:00
3:12 AM,64.4,60.8,88,29.83,9.0,SSE,8.1,-,N/A,Rain,Light Rain,150,2014-02-21 08:12:00
3:22 AM,64.4,60.8,88,29.83,10.0,SSE,5.8,-,N/A,,Overcast,160,2014-02-21 08:22:00
3:42 AM,62.6,62.6,100,29.82,10.0,South,5.8,-,N/A,Rain,Light Rain,170,2014-02-21 08:42:00
3:43 AM,62.6,62.6,100,29.82,9.0,South,4.6,-,N/A,Rain,Light Rain,170,2014-02-21 08:43:00
3:48 AM,62.6,62.6,100,29.82,6.0,South,5.8,-,N/A,Rain,Light Rain,190,2014-02-21 08:48:00
3:58 AM,63.0,62.1,97,29.81,7.0,South,5.8,-,0.04,Rain,Light Rain,170,2014-02-21 08:58:00
4:03 AM,62.6,62.6,100,29.81,4.0,South,5.8,-,N/A,Rain,Light Rain,170,2014-02-21 09:03:00
4:08 AM,62.6,62.6,100,29.82,3.0,SSW,8.1,-,N/A,Rain,Rain,200,2014-02-21 09:08:00
4:13 AM,62.6,62.6,100,29.83,1.8,Variable,4.6,-,N/A,Rain,Heavy Rain,0,2014-02-21 09:13:00
4:18 AM,62.6,62.6,100,29.82,2.0,South,9.2,-,N/A,Rain,Rain,170,2014-02-21 09:18:00
4:19 AM,62.6,62.6,100,29.81,2.5,SSE,9.2,-,N/A,Rain-Thunderstorm,Thunderstorms and Rain,160,2014-02-21 09:19:00
4:24 AM,62.6,62.6,100,29.82,7.0,South,12.7,-,N/A,Rain-Thunderstorm,Light Thunderstorms and Rain,180,2014-02-21 09:24:00
4:33 AM,62.6,62.6,100,29.83,6.0,South,9.2,-,N/A,Rain,Rain,190,2014-02-21 09:33:00
4:38 AM,62.6,62.6,100,29.82,5.0,SSW,10.4,18.4,N/A,Rain,Light Rain,200,2014-02-21 09:38:00
4:43 AM,62.6,62.6,100,29.82,7.0,South,10.4,19.6,N/A,Rain,Rain,190,2014-02-21 09:43:00
4:48 AM,62.6,62.6,100,29.81,5.0,South,19.6,27.6,N/A,Rain,Light Rain,190,2014-02-21 09:48:00
4:50 AM,62.6,62.6,100,29.82,3.0,SSW,35.7,57.5,N/A,Rain,Light Rain,210,2014-02-21 09:50:00
4:55 AM,62.6,62.6,100,29.85,1.5,WSW,32.2,57.5,N/A,Rain,Heavy Rain,240,2014-02-21 09:55:00
4:58 AM,62.6,60.8,94,29.82,1.5,WSW,27.6,57.5,0.43,Rain,Heavy Rain,250,2014-02-21 09:58:00
5:03 AM,62.6,60.8,94,29.84,2.5,WSW,20.7,47.2,N/A,Rain,Light Rain,250,2014-02-21 10:03:00
5:08 AM,60.8,59.0,94,29.84,6.0,West,19.6,36.8,N/A,Rain,Rain,260,2014-02-21 10:08:00
5:13 AM,60.8,59.0,94,29.84,9.0,West,16.1,25.3,N/A,Rain,Light Rain,270,2014-02-21 10:13:00
5:48 AM,60.8,59.0,94,29.87,8.0,WNW,26.5,35.7,N/A,Rain,Light Rain,290,2014-02-21 10:48:00
5:53 AM,59.0,57.2,94,29.89,6.0,West,21.9,35.7,N/A,Rain,Heavy Rain,280,2014-02-21 10:53:00
5:58 AM,57.2,55.4,94,29.89,6.0,West,24.2,35.7,0.11,Rain,Heavy Rain,280,2014-02-21 10:58:00
6:03 AM,55.4,53.6,94,29.90,7.0,WNW,19.6,33.4,N/A,Rain,Rain,290,2014-02-21 11:03:00
6:08 AM,53.6,51.8,94,29.90,7.0,WNW,20.7,31.1,N/A,Rain,Rain,290,2014-02-21 11:08:00
6:13 AM,53.6,51.8,94,29.91,8.0,West,19.6,29.9,N/A,Rain,Rain,280,2014-02-21 11:13:00
6:18 AM,51.8,50.0,94,29.92,9.0,WNW,20.7,27.6,N/A,Rain,Light Rain,290,2014-02-21 11:18:00
6:23 AM,51.8,50.0,94,29.93,10.0,WNW,16.1,27.6,N/A,Rain,Light Rain,290,2014-02-21 11:23:00
6:28 AM,51.8,50.0,94,29.92,10.0,WNW,17.3,27.6,N/A,,Light Drizzle,290,2014-02-21 11:28:00
6:33 AM,51.8,50.0,94,29.91,10.0,WNW,12.7,21.9,N/A,,Light Drizzle,290,2014-02-21 11:33:00
6:34 AM,51.8,50.0,94,29.91,10.0,WNW,16.1,21.9,N/A,,Mostly Cloudy,290,2014-02-21 11:34:00
6:39 AM,51.8,50.0,94,29.93,10.0,WNW,17.3,-,N/A,,Mostly Cloudy,290,2014-02-21 11:39:00
6:44 AM,51.8,50.0,94,29.93,10.0,WNW,18.4,24.2,N/A,,Overcast,300,2014-02-21 11:44:00
6:54 AM,50.0,48.2,94,29.94,10.0,WNW,12.7,-,N/A,,Mostly Cloudy,300,2014-02-21 11:54:00
6:58 AM,50.7,48.9,94,29.94,7.0,WNW,13.8,20.7,0.05,,Overcast,300,2014-02-21 11:58:00
7:40 AM,50.0,46.4,87,29.97,7.0,WNW,12.7,-,N/A,,Overcast,300,2014-02-21 12:40:00
7:58 AM,49.1,45.1,86,29.98,10.0,WNW,11.5,19.6,N/A,,Overcast,300,2014-02-21 12:58:00
8:58 AM,47.8,38.8,71,30.01,10.0,NW,16.1,23.0,N/A,,Overcast,320,2014-02-21 13:58:00
9:58 AM,48.2,30.9,51,30.03,10.0,NW,10.4,-,0.01,,Mostly Cloudy,320,2014-02-21 14:58:00
10:58 AM,51.3,30.2,44,30.03,10.0,NW,19.6,24.2,N/A,,Scattered Clouds,320,2014-02-21 15:58:00
11:58 AM,53.1,27.9,38,30.04,10.0,NW,15.0,21.9,N/A,,Scattered Clouds,320,2014-02-21 16:58:00
12:58 PM,55.6,30.2,38,30.02,10.0,NW,12.7,-,N/A,,Partly Cloudy,320,2014-02-21 17:58:00
1:58 PM,57.6,28.8,33,30.01,10.0,WNW,10.4,17.3,N/A,,Partly Cloudy,290,2014-02-21 18:58:00
2:55 PM,58.6,27.1,30,30.01,10.0,WNW,15.0,-,N/A,,Partly Cloudy,290,2014-02-21 19:55:00
2:56 PM,58.6,27.1,30,30.01,10.0,WNW,12.7,-,N/A,,Clear,290,2014-02-21 19:56:00
3:58 PM,59.5,25.9,28,30.02,10.0,Variable,5.8,-,N/A,,Partly Cloudy,0,2014-02-21 20:58:00
4:58 PM,58.1,22.6,25,30.04,10.0,West,11.5,-,N/A,,Partly Cloudy,280,2014-02-21 21:58:00
5:58 PM,55.4,25.2,31,30.06,10.0,WNW,10.4,-,N/A,,Partly Cloudy,290,2014-02-21 22:58:00
6:58 PM,51.8,25.0,35,30.06,10.0,WNW,5.8,-,N/A,,Partly Cloudy,290,2014-02-21 23:58:00
7:58 PM,50.0,23.9,36,30.08,10.0,WNW,8.1,-,N/A,,Clear,300,2014-02-22 00:58:00
8:58 PM,45.9,25.0,44,30.08,10.0,West,8.1,-,N/A,,Clear,270,2014-02-22 01:58:00
9:58 PM,47.3,23.0,38,30.08,10.0,WNW,8.1,-,N/A,,Clear,290,2014-02-22 02:58:00
10:58 PM,43.3,24.3,47,30.10,10.0,West,8.1,-,N/A,,Clear,270,2014-02-22 03:58:00
11:58 PM,43.3,23.5,46,30.10,10.0,WNW,2.3,-,N/A,,Clear,300,2014-02-22 04:58:00